Location: Newark
(42.8481°N, 0.4872°E)
Time: 00:52:09
(UTC+00:00)

Transit 2A - All Passes

Search period start: 27 October 2020 00:00
Search period end: 06 November 2020 00:00
Orbit: 593 x 966 km, 66.7° (Epoch: 26 October)

Date Brightness Start Highest point End Pass type
(mag) Time Alt. Az. Time Alt. Az. Time Alt. Az.
27 Oct - 00:26:12 10° S 00:32:00 39° ESE 00:37:49 10° NE visible
27 Oct - 02:09:11 10° WSW 02:15:15 43° NW 02:21:13 10° NNE visible
27 Oct - 03:57:35 10° NW 04:00:10 12° NNW 04:02:43 10° N visible
27 Oct - 07:32:34 10° NNE 07:33:05 10° NNE 07:33:36 10° NNE daylight
27 Oct - 09:12:57 10° NNW 09:18:12 36° NE 09:22:57 10° ESE daylight
27 Oct - 10:56:25 10° NW 11:01:22 35° WSW 11:05:50 10° S daylight
27 Oct - 23:52:46 10° SSE 23:58:01 28° ESE 00:03:15 10° NE night (unlit)
28 Oct - 01:34:41 10° SW 01:40:57 58° NW 01:47:09 10° NNE visible
28 Oct - 03:21:53 10° WNW 03:25:32 16° NNW 03:29:07 10° N visible
28 Oct - 08:38:58 10° NNW 08:43:48 27° NE 08:48:13 10° ESE daylight
28 Oct - 10:22:00 10° NW 10:27:22 51° WSW 10:32:09 10° S daylight
28 Oct - 23:19:42 10° SSE 23:24:05 20° ESE 23:28:29 10° ENE night (unlit)
29 Oct - 01:00:20 10° SW 01:06:43 77° WNW 01:13:02 10° NNE visible
29 Oct - 02:46:31 10° W 02:50:58 19° NW 02:55:21 10° N visible
29 Oct - 08:05:05 10° N 08:09:20 21° NE 08:13:18 10° E daylight
29 Oct - 09:47:42 10° NW 09:53:17 75° WSW 09:58:14 10° SSE daylight
29 Oct - 22:47:16 10° SE 22:50:12 14° ESE 22:53:09 10° ENE night (unlit)
30 Oct - 00:26:11 10° SSW 00:32:33 79° ESE 00:38:51 10° NNE night (unlit)
30 Oct - 02:11:22 10° W 02:16:28 25° NW 02:21:29 10° N visible
30 Oct - 07:31:16 10° N 07:34:49 16° NE 07:38:09 10° ENE daylight
30 Oct - 09:13:31 10° NNW 09:19:08 76° ENE 09:24:07 10° SE daylight
30 Oct - 10:58:42 10° WNW 11:01:26 14° WSW 11:04:03 10° SW daylight
30 Oct - 23:52:13 10° SSW 23:58:26 58° ESE 00:04:36 10° NE night (unlit)
31 Oct - 01:36:27 10° WSW 01:42:02 31° NW 01:47:33 10° NNE visible
31 Oct - 06:57:39 10° N 07:00:13 13° NNE 07:02:41 10° ENE daylight
31 Oct - 08:39:23 10° NNW 08:44:54 53° NE 08:49:48 10° SE daylight
31 Oct - 10:23:35 10° WNW 10:27:34 21° WSW 10:31:17 10° SSW daylight
31 Oct - 23:18:28 10° S 23:24:22 42° ESE 23:30:15 10° NE night (unlit)
01 Nov - 01:01:42 10° WSW 01:07:41 41° NW 01:13:33 10° NNE visible
01 Nov - 02:50:25 10° NW 02:52:39 12° NNW 02:54:51 10° N visible
01 Nov - 06:24:39 10° NNE 06:25:33 10° NNE 06:26:26 10° NE daylight
01 Nov - 08:05:21 10° NNW 08:10:36 38° NE 08:15:19 10° ESE daylight
01 Nov - 09:48:55 10° NW 09:53:40 32° WSW 09:57:58 10° S daylight
01 Nov - 22:44:58 10° SSE 22:50:22 30° ESE 22:55:44 10° NE night (unlit)
02 Nov - 00:27:08 10° SW 00:33:23 54° NW 00:39:30 10° NNE night (unlit)
02 Nov - 02:14:36 10° WNW 02:18:01 15° NNW 02:21:21 10° N visible
02 Nov - 07:31:22 10° NNW 07:36:12 29° NE 07:40:37 10° ESE daylight
02 Nov - 09:14:27 10° NW 09:19:40 47° WSW 09:24:21 10° S daylight
02 Nov - 22:11:49 10° SSE 22:16:25 21° ESE 22:21:01 10° ENE night (unlit)
02 Nov - 23:52:45 10° SW 23:59:08 73° WNW 00:05:24 10° NNE night (unlit)
03 Nov - 01:39:10 10° W 01:43:26 18° NW 01:47:38 10° N visible
03 Nov - 06:57:27 10° N 07:01:45 22° NE 07:05:45 10° E daylight
03 Nov - 08:40:08 10° NW 08:45:37 70° WSW 08:50:29 10° SSE daylight
03 Nov - 21:39:12 10° SE 21:42:32 15° ESE 21:45:51 10° ENE night (unlit)
03 Nov - 23:18:33 10° SSW 23:24:57 84° ESE 23:31:14 10° NNE night (unlit)
04 Nov - 01:03:58 10° W 01:08:56 23° NW 01:13:46 10° N visible
04 Nov - 06:23:38 10° N 06:27:14 17° NE 06:30:38 10° ENE daylight
04 Nov - 08:05:55 10° NNW 08:11:28 82° ENE 08:16:24 10° SSE daylight
04 Nov - 09:51:29 10° WNW 09:53:42 13° W 09:55:50 10° SW daylight
04 Nov - 22:44:33 10° SSW 22:50:49 62° ESE 22:57:00 10° NE night (unlit)
05 Nov - 00:28:59 10° WSW 00:34:30 30° NW 00:39:51 10° NNE night (unlit)
05 Nov - 05:49:58 10° N 05:52:39 13° NNE 05:55:13 10° ENE visible
05 Nov - 07:31:47 10° NNW 07:37:16 57° NE 07:42:08 10° SE daylight
05 Nov - 09:16:09 10° WNW 09:19:51 19° WSW 09:23:19 10° SSW daylight
05 Nov - 22:10:45 10° S 22:16:45 45° ESE 22:22:40 10° NE night (unlit)
